Tracking 35331 objects as of 16-Sep-2026
HD Live streaming from Space Station
objects crossing your sky now

SL-6 R/B(2)


SL-6 R/B(2) is no longer on orbit


NORAD ID: 9647
Int'l Code: 1976-127E
Launch date: December 28, 1976
Source: Commonwealth of Independent States (former USSR) (CIS)
Launch site: PLESETSK MISSILE AND SPACE COMPLEX (PKMTR)
Decay date: 1987-12-18

Note: This is a ROCKET BODY
Your satellite tracking list
Your tracking list is empty




NASA's NSSDC Master Catalog

Two Line Element Set (TLE):
1 09647U 76127  E 87266.69999998  .09264457 +26455-4 +16499-2 0  9990
2 09647 063.9790 358.3040 6719814 242.3110 351.7500 03.13839375000120
Source of the keplerian elements: AFSPC